Location: Brunembert
(50.7122°N, 1.8935°E)
Time: 04:58:43
(UTC+00:00)

Lacrosse 5 rocket - Pass Details

Date: 22 April 2021
Orbit: 461 x 634 km, 57.0° (Epoch: 06 May)

Event Time Altitude Azimuth Distance (km) Brightness Sun altitude
Rises 20:39:58 0° 293° (WNW) 2,718 6.3 -14.4°
Reaches altitude 10° 20:42:15 10° 302° (WNW) 1,854 5.4 -14.7°
Maximum altitude 20:46:13 39° 12° (NNE) 885 2.6 -15.1°
Enters shadow 20:50:01 12° 80° (E) 1,809 3.6 -15.6°
